Year,Month,Day,Hour,Minute,Value (Times are PST for windspeed in km/hr)
2014,12,09,00,00,22.40
2014,12,09,00,01,20.60
2014,12,09,00,02,19.00
2014,12,09,00,03,33.10
2014,12,09,00,04,20.20
2014,12,09,00,05,23.90
2014,12,09,00,06,24.00
2014,12,09,00,07,27.40
2014,12,09,00,08,27.60
2014,12,09,00,09,24.50
2014,12,09,00,10,21.10
2014,12,09,00,11,24.10
2014,12,09,00,12,17.10
2014,12,09,00,13,23.30
2014,12,09,00,14,24.00
2014,12,09,00,15,26.50
2014,12,09,00,16,22.50
2014,12,09,00,17,25.70
2014,12,09,00,18,20.40
2014,12,09,00,19,28.00
2014,12,09,00,20,27.90
2014,12,09,00,21,24.40
2014,12,09,00,22,26.10
2014,12,09,00,23,19.50
2014,12,09,00,24,19.10
2014,12,09,00,25,25.10
2014,12,09,00,26,32.40
2014,12,09,00,27,23.50
2014,12,09,00,28,21.20
2014,12,09,00,29,17.20
2014,12,09,00,30,19.80
2014,12,09,00,31,23.50
2014,12,09,00,32,20.20
2014,12,09,00,33,14.80
2014,12,09,00,34,19.50
2014,12,09,00,35,15.30
2014,12,09,00,36,24.00
2014,12,09,00,37,27.40
2014,12,09,00,38,23.50
2014,12,09,00,39,24.60
2014,12,09,00,40,26.60
2014,12,09,00,41,16.30
2014,12,09,00,42,21.70
2014,12,09,00,43,16.60
2014,12,09,00,44,19.60
2014,12,09,00,45,22.80
2014,12,09,00,46,21.60
2014,12,09,00,47,16.30
2014,12,09,00,48,23.00
2014,12,09,00,49,24.80
2014,12,09,00,50,13.40
2014,12,09,00,51,14.10
2014,12,09,00,52,12.20
2014,12,09,00,53,25.20
2014,12,09,00,54,19.00
2014,12,09,00,55,20.60
2014,12,09,00,56,20.60
2014,12,09,00,57,16.50
2014,12,09,00,58,15.90
2014,12,09,00,59,19.10
2014,12,09,01,00,14.70
2014,12,09,01,01,12.00
2014,12,09,01,02,17.30
2014,12,09,01,03,19.50
2014,12,09,01,04,10.50
2014,12,09,01,05,10.40
2014,12,09,01,06,18.60
2014,12,09,01,07,20.10
2014,12,09,01,08,16.80
2014,12,09,01,09,15.60
2014,12,09,01,10,14.40
2014,12,09,01,11,17.90
2014,12,09,01,12,20.40
2014,12,09,01,13,19.10
2014,12,09,01,14,18.60
2014,12,09,01,15,16.00
2014,12,09,01,16,10.50
2014,12,09,01,17,13.70
2014,12,09,01,18,18.90
2014,12,09,01,19,17.90
2014,12,09,01,20,15.10
2014,12,09,01,21,16.00
2014,12,09,01,22,13.20
2014,12,09,01,23,18.70
2014,12,09,01,24,14.20
2014,12,09,01,25,17.00
2014,12,09,01,26,15.00
2014,12,09,01,27,15.90
2014,12,09,01,28,20.00
2014,12,09,01,29,19.50
2014,12,09,01,30,22.20
2014,12,09,01,31,13.20
2014,12,09,01,32,16.40
2014,12,09,01,33,20.90
2014,12,09,01,34,19.80
2014,12,09,01,35,22.60
2014,12,09,01,36,19.90
2014,12,09,01,37,18.70
2014,12,09,01,38,11.90
2014,12,09,01,39,21.90
2014,12,09,01,40,20.30
2014,12,09,01,41,18.30
2014,12,09,01,42,18.40
2014,12,09,01,43,22.40
2014,12,09,01,44,22.60
2014,12,09,01,45,19.80
2014,12,09,01,46,23.60
2014,12,09,01,47,16.80
2014,12,09,01,48,26.30
2014,12,09,01,49,18.60
2014,12,09,01,50,17.60
2014,12,09,01,51,23.60
2014,12,09,01,52,19.30
2014,12,09,01,53,12.80
2014,12,09,01,54,19.40
2014,12,09,01,55,20.10
2014,12,09,01,56,18.60
2014,12,09,01,57,21.30
2014,12,09,01,58,17.80
2014,12,09,01,59,13.70
2014,12,09,02,00,11.30
2014,12,09,02,01,7.00
2014,12,09,02,02,7.20
2014,12,09,02,03,12.00
2014,12,09,02,04,9.70
2014,12,09,02,05,15.50
2014,12,09,02,06,16.50
2014,12,09,02,07,13.00
2014,12,09,02,08,12.80
2014,12,09,02,09,13.40
2014,12,09,02,10,14.60
2014,12,09,02,11,13.50
2014,12,09,02,12,14.20
2014,12,09,02,13,14.80
2014,12,09,02,14,13.20
2014,12,09,02,15,13.40
2014,12,09,02,16,14.90
2014,12,09,02,17,15.50
2014,12,09,02,18,15.60
2014,12,09,02,19,14.50
2014,12,09,02,20,16.70
2014,12,09,02,21,14.80
2014,12,09,02,22,12.80
2014,12,09,02,23,18.50
2014,12,09,02,24,14.30
2014,12,09,02,25,11.40
2014,12,09,02,26,15.60
2014,12,09,02,27,12.90
2014,12,09,02,28,18.80
2014,12,09,02,29,10.00
2014,12,09,02,30,11.00
2014,12,09,02,31,9.60
2014,12,09,02,32,10.90
2014,12,09,02,33,10.00
2014,12,09,02,34,7.30
2014,12,09,02,35,10.50
2014,12,09,02,36,9.80
2014,12,09,02,37,17.70
2014,12,09,02,38,19.00
2014,12,09,02,39,12.50
2014,12,09,02,40,8.20
2014,12,09,02,41,7.60
2014,12,09,02,42,8.90
2014,12,09,02,43,6.90
2014,12,09,02,44,6.80
2014,12,09,02,45,3.70
2014,12,09,02,46,10.50
2014,12,09,02,47,12.00
2014,12,09,02,48,6.70
2014,12,09,02,49,12.50
2014,12,09,02,50,29.40
2014,12,09,02,51,23.30
2014,12,09,02,52,8.40
2014,12,09,02,53,9.70
2014,12,09,02,56,10.50
2014,12,09,02,57,13.70
2014,12,09,02,58,9.70
2014,12,09,02,59,14.50
2014,12,09,03,00,10.30
2014,12,09,03,01,8.30
2014,12,09,03,02,8.90
2014,12,09,03,03,11.40
2014,12,09,03,29,14.00
2014,12,09,03,30,11.20
2014,12,09,03,33,7.40
2014,12,09,03,34,7.40
2014,12,09,03,35,7.50
2014,12,09,03,36,15.60
2014,12,09,03,39,9.70
2014,12,09,03,40,7.80
2014,12,09,03,41,11.20
2014,12,09,03,42,14.40
2014,12,09,03,43,18.60
2014,12,09,03,44,14.00
2014,12,09,03,45,12.40
2014,12,09,03,46,16.00
2014,12,09,03,47,14.90
2014,12,09,03,48,18.60
2014,12,09,03,49,15.60
2014,12,09,03,50,14.20
2014,12,09,03,51,9.80
2014,12,09,03,52,18.60
2014,12,09,03,53,13.80
2014,12,09,03,54,13.70
2014,12,09,03,55,20.50
2014,12,09,03,56,15.60
2014,12,09,03,57,15.50
2014,12,09,03,58,14.90
2014,12,09,03,59,25.60
2014,12,09,04,00,18.20
2014,12,09,04,01,18.10
2014,12,09,04,02,13.90
2014,12,09,04,03,12.10
2014,12,09,04,04,10.70
2014,12,09,04,05,14.30
2014,12,09,04,06,10.90
2014,12,09,04,07,9.40
2014,12,09,04,08,15.50
2014,12,09,04,09,18.00
2014,12,09,04,10,15.00
2014,12,09,04,11,18.00
2014,12,09,04,12,9.00
2014,12,09,04,13,12.30
2014,12,09,04,14,6.60
2014,12,09,04,15,10.90
2014,12,09,04,16,6.90
2014,12,09,04,17,6.80
2014,12,09,04,18,5.90
2014,12,09,04,19,4.80
2014,12,09,04,20,9.70
2014,12,09,04,21,8.10
2014,12,09,04,22,8.90
2014,12,09,04,23,7.90
2014,12,09,04,24,8.30
2014,12,09,04,25,6.20
2014,12,09,04,26,6.70
2014,12,09,04,27,13.30
2014,12,09,04,28,9.20
2014,12,09,04,29,16.40
2014,12,09,04,30,5.60
2014,12,09,04,31,5.80
2014,12,09,04,32,7.40
2014,12,09,04,33,17.50
2014,12,09,04,34,9.90
2014,12,09,04,35,9.90
2014,12,09,04,36,8.70
2014,12,09,04,37,11.10
2014,12,09,04,38,7.70
2014,12,09,04,39,5.40
2014,12,09,04,40,9.50
2014,12,09,04,41,13.20
2014,12,09,04,42,21.70
2014,12,09,04,43,15.50
2014,12,09,04,44,16.80
2014,12,09,04,45,12.60
2014,12,09,04,46,9.90
2014,12,09,04,47,10.40
2014,12,09,04,48,9.70
2014,12,09,04,49,5.90
2014,12,09,04,50,9.10
2014,12,09,04,51,6.90
2014,12,09,04,52,9.60
2014,12,09,04,53,8.00
2014,12,09,04,54,15.40
2014,12,09,04,55,6.70
2014,12,09,04,56,4.10
2014,12,09,04,57,9.60
2014,12,09,04,58,11.40
2014,12,09,04,59,6.60
2014,12,09,05,00,4.90
2014,12,09,05,01,5.10
2014,12,09,05,02,5.20
2014,12,09,05,03,5.00
2014,12,09,05,04,5.30
2014,12,09,05,05,6.40
2014,12,09,05,06,14.10
2014,12,09,05,07,9.60
2014,12,09,05,08,11.40
2014,12,09,05,09,6.70
2014,12,09,05,10,8.90
2014,12,09,05,11,8.60
2014,12,09,05,12,7.90
2014,12,09,05,13,3.60
2014,12,09,05,14,5.30
2014,12,09,05,15,4.30
2014,12,09,05,16,3.80
2014,12,09,05,17,5.20
2014,12,09,05,18,5.00
2014,12,09,05,19,7.90
2014,12,09,05,20,7.00
2014,12,09,05,21,8.60
2014,12,09,05,22,5.20
2014,12,09,05,23,5.40
2014,12,09,05,24,6.30
2014,12,09,05,25,10.10
2014,12,09,05,26,5.70
2014,12,09,05,27,7.50
2014,12,09,05,28,4.20
2014,12,09,05,29,7.10
2014,12,09,05,30,5.20
2014,12,09,05,31,6.40
2014,12,09,05,32,13.00
2014,12,09,05,33,7.90
2014,12,09,05,34,2.90
2014,12,09,05,35,2.70
2014,12,09,05,36,4.30
2014,12,09,05,37,9.20
2014,12,09,05,38,10.20
2014,12,09,05,39,7.30
2014,12,09,05,40,3.40
2014,12,09,05,41,7.70
2014,12,09,05,42,7.80
2014,12,09,05,43,5.00
2014,12,09,05,44,7.10
2014,12,09,05,45,6.20
2014,12,09,05,46,10.40
2014,12,09,05,47,7.00
2014,12,09,05,48,6.90
2014,12,09,05,49,15.10
2014,12,09,05,50,19.00
2014,12,09,05,51,13.10
2014,12,09,05,52,8.80
2014,12,09,05,53,6.90
2014,12,09,05,54,13.20
2014,12,09,05,55,13.90
2014,12,09,05,56,10.90
2014,12,09,05,57,17.50
2014,12,09,05,58,10.80
2014,12,09,05,59,6.20
2014,12,09,06,00,15.20
2014,12,09,06,01,7.50
2014,12,09,06,02,12.40
2014,12,09,06,03,12.90
2014,12,09,06,04,7.40
2014,12,09,06,05,7.20
2014,12,09,06,06,9.40
2014,12,09,06,07,14.60
2014,12,09,06,08,10.20
2014,12,09,06,09,7.90
2014,12,09,06,10,7.10
2014,12,09,06,11,14.10
2014,12,09,06,12,6.70
2014,12,09,06,13,4.50
2014,12,09,06,14,4.00
2014,12,09,06,15,3.30
2014,12,09,06,16,1.10
2014,12,09,06,17,2.40
2014,12,09,06,18,3.40
2014,12,09,06,19,2.40
2014,12,09,06,20,4.40
2014,12,09,06,21,2.40
2014,12,09,06,22,5.10
2014,12,09,06,23,2.80
2014,12,09,06,24,4.60
2014,12,09,06,25,3.20
2014,12,09,06,26,2.00
2014,12,09,06,27,2.00
2014,12,09,06,28,0.30
2014,12,09,06,29,2.40
2014,12,09,06,30,4.80
2014,12,09,06,31,5.20
2014,12,09,06,32,5.70
2014,12,09,06,33,5.80
2014,12,09,06,34,11.40
2014,12,09,06,35,9.60
2014,12,09,06,36,6.80
2014,12,09,06,37,5.60
2014,12,09,06,38,7.20
2014,12,09,06,39,5.50
2014,12,09,06,40,5.30
2014,12,09,06,41,3.30
2014,12,09,06,42,4.10
2014,12,09,06,43,5.30
2014,12,09,06,44,7.30
2014,12,09,06,45,4.30
2014,12,09,06,46,3.00
2014,12,09,06,47,3.90
2014,12,09,06,48,3.70
2014,12,09,06,49,3.60
2014,12,09,06,50,2.80
2014,12,09,06,51,3.00
2014,12,09,06,52,3.20
2014,12,09,06,53,3.50
2014,12,09,06,54,3.90
2014,12,09,06,55,6.40
2014,12,09,06,56,7.40
2014,12,09,06,57,8.60
2014,12,09,06,58,4.90
2014,12,09,06,59,6.00
2014,12,09,07,00,5.80
2014,12,09,07,01,9.50
2014,12,09,07,02,11.20
2014,12,09,07,03,16.00
2014,12,09,07,04,15.30
2014,12,09,07,05,16.40
2014,12,09,07,06,7.90
2014,12,09,07,07,7.90
2014,12,09,07,08,7.30
2014,12,09,07,09,7.90
2014,12,09,07,10,10.80
2014,12,09,07,11,6.70
2014,12,09,07,12,8.40
2014,12,09,07,13,6.90
2014,12,09,07,14,8.70
2014,12,09,07,15,10.30
2014,12,09,07,16,8.40
2014,12,09,07,17,8.50
2014,12,09,07,18,15.20
2014,12,09,07,19,9.30
2014,12,09,07,20,18.40
2014,12,09,07,21,11.60
2014,12,09,07,22,12.20
2014,12,09,07,23,12.80
2014,12,09,07,24,6.70
2014,12,09,07,25,12.50
2014,12,09,07,26,9.80
2014,12,09,07,27,11.40
2014,12,09,07,28,10.40
2014,12,09,07,29,11.20
2014,12,09,07,30,13.20
2014,12,09,07,31,12.80
2014,12,09,07,32,13.80
2014,12,09,07,33,10.20
2014,12,09,07,34,8.30
2014,12,09,07,35,13.50
2014,12,09,07,36,11.30
2014,12,09,07,37,16.50
2014,12,09,07,38,15.10
2014,12,09,07,39,15.70
2014,12,09,07,40,11.70
2014,12,09,07,41,10.20
2014,12,09,07,42,10.80
2014,12,09,07,43,17.40
2014,12,09,07,44,8.80
2014,12,09,07,45,17.10
2014,12,09,07,46,8.60
2014,12,09,07,47,7.10
2014,12,09,07,48,10.90
2014,12,09,07,49,9.80
2014,12,09,07,50,13.50
2014,12,09,07,51,15.20
2014,12,09,07,52,10.30
2014,12,09,07,53,14.40
2014,12,09,07,54,16.40
2014,12,09,07,55,12.10
2014,12,09,07,56,15.70
2014,12,09,07,57,12.90
2014,12,09,07,58,15.00
2014,12,09,07,59,11.00
2014,12,09,08,00,7.50
2014,12,09,08,01,10.30
2014,12,09,08,02,16.10
2014,12,09,08,03,15.50
2014,12,09,08,04,18.40
2014,12,09,08,05,10.60
2014,12,09,08,06,10.80
2014,12,09,08,07,10.70
2014,12,09,08,08,12.40
2014,12,09,08,09,9.30
2014,12,09,08,10,11.30
2014,12,09,08,11,5.70
2014,12,09,08,12,3.80
2014,12,09,08,13,10.40
2014,12,09,08,14,4.20
2014,12,09,08,15,6.80
2014,12,09,08,16,11.70
2014,12,09,08,17,5.60
2014,12,09,08,18,7.10
2014,12,09,08,19,8.20
2014,12,09,08,20,5.50
2014,12,09,08,21,9.80
2014,12,09,08,22,13.30
2014,12,09,08,23,6.50
2014,12,09,08,24,5.30
2014,12,09,08,25,4.80
2014,12,09,08,26,6.10
2014,12,09,08,27,6.60
2014,12,09,08,28,6.80
2014,12,09,08,29,12.40
2014,12,09,08,30,14.30
2014,12,09,08,31,7.90
2014,12,09,08,32,7.70
2014,12,09,08,33,8.60
2014,12,09,08,34,7.40
2014,12,09,08,35,8.10
2014,12,09,08,36,8.10
2014,12,09,08,37,8.20
2014,12,09,08,38,8.80
2014,12,09,08,39,13.00
2014,12,09,08,40,12.70
2014,12,09,08,41,9.30
2014,12,09,08,42,9.90
2014,12,09,08,43,7.80
2014,12,09,08,44,12.20
2014,12,09,08,45,13.70
2014,12,09,08,46,8.10
2014,12,09,08,47,9.70
2014,12,09,08,48,13.80
2014,12,09,08,49,10.50
2014,12,09,08,50,7.20
2014,12,09,08,51,4.80
2014,12,09,08,52,4.30
2014,12,09,08,53,5.90
2014,12,09,08,54,4.10
2014,12,09,08,55,4.00
2014,12,09,08,56,8.80
2014,12,09,08,57,3.90
2014,12,09,08,58,3.70
2014,12,09,08,59,5.80
2014,12,09,09,00,7.00
2014,12,09,09,01,8.20
2014,12,09,09,02,6.20
2014,12,09,09,03,6.00
2014,12,09,09,04,7.60
2014,12,09,09,05,8.10
2014,12,09,09,06,8.00
2014,12,09,09,07,6.40
2014,12,09,09,08,4.80
2014,12,09,09,09,6.60
2014,12,09,09,10,7.10
2014,12,09,09,11,7.20
2014,12,09,09,12,9.10
2014,12,09,09,13,5.00
2014,12,09,09,14,4.40
2014,12,09,09,15,4.00
2014,12,09,09,16,4.20
2014,12,09,09,17,4.00
2014,12,09,09,18,4.50
2014,12,09,09,19,5.60
2014,12,09,09,20,5.60
2014,12,09,09,21,4.20
2014,12,09,09,22,3.20
2014,12,09,09,23,6.80
2014,12,09,09,24,9.80
2014,12,09,09,25,9.10
2014,12,09,09,26,7.90
2014,12,09,09,27,7.40
2014,12,09,09,28,11.30
2014,12,09,09,29,8.90
2014,12,09,09,30,8.00
2014,12,09,09,31,7.90
2014,12,09,09,32,7.70
2014,12,09,09,33,7.10
2014,12,09,09,34,5.40
2014,12,09,09,35,4.50
2014,12,09,09,36,7.20
2014,12,09,09,37,8.70
2014,12,09,09,38,8.80
2014,12,09,09,39,8.40
2014,12,09,09,40,5.70
2014,12,09,09,41,6.10
2014,12,09,09,42,3.30
2014,12,09,09,43,5.40
2014,12,09,09,44,5.60
2014,12,09,09,45,4.90
2014,12,09,09,46,4.80
2014,12,09,09,47,5.50
2014,12,09,09,48,3.90
2014,12,09,09,51,2.70
2014,12,09,09,52,1.30
2014,12,09,09,53,2.80
2014,12,09,09,54,5.80
2014,12,09,09,55,4.80
2014,12,09,09,56,4.80
2014,12,09,09,57,5.40
2014,12,09,09,58,7.00
2014,12,09,09,59,5.20
2014,12,09,10,00,3.80
2014,12,09,10,01,4.10
2014,12,09,10,02,2.70
2014,12,09,10,03,9.70
2014,12,09,10,04,7.80
2014,12,09,10,05,6.30
2014,12,09,10,06,5.10
2014,12,09,10,07,11.00
2014,12,09,10,08,10.90
2014,12,09,10,09,21.80
2014,12,09,10,10,15.20
2014,12,09,10,11,11.00
2014,12,09,10,12,12.40
2014,12,09,10,13,11.10
2014,12,09,10,14,7.40
2014,12,09,10,15,7.00
2014,12,09,10,16,5.30
2014,12,09,10,17,4.70
2014,12,09,10,18,15.80
2014,12,09,10,19,9.20
2014,12,09,10,20,4.80
2014,12,09,10,21,6.40
2014,12,09,10,22,11.70
2014,12,09,10,23,8.70
2014,12,09,10,24,8.90
2014,12,09,11,06,8.20
2014,12,09,11,07,10.60
2014,12,09,11,08,11.90
2014,12,09,11,09,9.70
2014,12,09,11,10,8.20
2014,12,09,11,11,9.40
2014,12,09,11,12,8.90
2014,12,09,11,13,8.80
2014,12,09,11,14,11.80
2014,12,09,11,15,11.30
2014,12,09,11,16,9.70
2014,12,09,11,17,9.80
2014,12,09,11,18,9.70
2014,12,09,11,19,13.50
2014,12,09,11,20,12.50
2014,12,09,11,21,9.10
2014,12,09,11,22,6.00
2014,12,09,11,23,5.40
2014,12,09,11,24,7.20
2014,12,09,11,25,5.10
2014,12,09,11,26,7.30
2014,12,09,11,27,9.40
2014,12,09,11,28,4.70
2014,12,09,11,29,4.20
2014,12,09,11,30,9.30
2014,12,09,11,31,5.80
2014,12,09,11,32,6.50
2014,12,09,11,33,6.80
2014,12,09,11,34,6.20
2014,12,09,11,35,4.50
2014,12,09,11,36,5.20
2014,12,09,11,37,8.90
2014,12,09,11,38,5.20
2014,12,09,11,39,11.20
2014,12,09,11,40,6.00
2014,12,09,11,41,10.50
2014,12,09,11,42,5.50
2014,12,09,11,43,5.80
2014,12,09,11,44,6.40
2014,12,09,11,45,3.90
2014,12,09,11,46,4.90
2014,12,09,11,47,3.90
2014,12,09,11,48,3.80
2014,12,09,11,49,2.20
2014,12,09,11,50,4.30
2014,12,09,11,51,3.30
2014,12,09,11,52,2.80
2014,12,09,11,53,2.30
2014,12,09,11,54,3.30
2014,12,09,11,55,4.20
2014,12,09,11,56,3.80
2014,12,09,11,57,6.60
2014,12,09,11,58,5.60
2014,12,09,11,59,3.80
2014,12,09,12,00,6.70
2014,12,09,12,01,4.30
2014,12,09,12,02,3.90
2014,12,09,12,03,4.70
2014,12,09,12,04,4.30
2014,12,09,12,05,1.90
2014,12,09,12,06,2.30
2014,12,09,12,07,2.90
2014,12,09,12,08,3.00
2014,12,09,12,09,3.90
2014,12,09,12,10,4.50
2014,12,09,12,11,7.60
2014,12,09,12,12,6.40
2014,12,09,12,13,10.50
2014,12,09,12,14,8.90
2014,12,09,12,15,8.30
2014,12,09,12,16,9.10
2014,12,09,12,17,7.60
2014,12,09,12,18,4.00
2014,12,09,12,19,6.60
2014,12,09,12,20,8.40
2014,12,09,12,21,4.20
2014,12,09,12,22,10.20
2014,12,09,12,23,11.00
2014,12,09,12,24,10.80
2014,12,09,12,25,4.00
2014,12,09,12,26,5.30
2014,12,09,12,27,3.60
2014,12,09,12,28,4.00
2014,12,09,12,29,2.70
2014,12,09,12,30,1.60
2014,12,09,12,31,1.20
2014,12,09,12,32,2.70
2014,12,09,12,33,2.80
2014,12,09,12,34,3.90
2014,12,09,12,35,3.70
2014,12,09,12,36,4.50
2014,12,09,12,37,3.60
2014,12,09,12,38,5.90
2014,12,09,12,39,3.80
2014,12,09,12,40,3.20
2014,12,09,12,41,4.70
2014,12,09,12,42,6.50
2014,12,09,12,43,3.60
2014,12,09,12,44,2.30
2014,12,09,12,45,1.40
2014,12,09,12,46,2.20
2014,12,09,12,47,3.20
2014,12,09,12,48,1.40
2014,12,09,12,49,2.10
2014,12,09,12,50,3.00
2014,12,09,12,51,2.50
2014,12,09,12,52,0.80
2014,12,09,12,53,1.10
2014,12,09,12,54,0.60
2014,12,09,12,55,1.50
2014,12,09,12,56,3.00
2014,12,09,12,57,2.10
2014,12,09,12,58,1.10
2014,12,09,12,59,6.20
2014,12,09,13,00,4.40
2014,12,09,13,01,3.70
2014,12,09,13,02,3.60
2014,12,09,13,03,3.10
2014,12,09,13,04,4.00
2014,12,09,13,05,3.50
2014,12,09,13,06,3.40
2014,12,09,13,07,1.80
2014,12,09,13,08,2.10
2014,12,09,13,09,4.20
2014,12,09,13,10,3.90
2014,12,09,13,11,1.20
2014,12,09,13,12,0.90
2014,12,09,13,13,1.80
2014,12,09,13,14,2.80
2014,12,09,13,15,2.80
2014,12,09,13,16,6.00
2014,12,09,13,17,9.70
2014,12,09,13,18,8.20
2014,12,09,13,19,7.90
2014,12,09,13,20,3.70
2014,12,09,13,21,3.70
2014,12,09,13,22,8.00
2014,12,09,13,23,6.60
2014,12,09,13,24,6.00
2014,12,09,13,25,7.10
2014,12,09,13,26,7.60
2014,12,09,13,27,7.20
2014,12,09,13,28,4.70
2014,12,09,13,29,10.60
2014,12,09,13,30,9.30
2014,12,09,13,31,11.50
2014,12,09,13,32,9.80
2014,12,09,13,33,7.30
2014,12,09,13,34,7.80
2014,12,09,13,35,10.30
2014,12,09,13,36,14.10
2014,12,09,13,37,7.10
2014,12,09,13,38,7.60
2014,12,09,13,39,9.40
2014,12,09,13,40,8.00
2014,12,09,13,41,5.20
2014,12,09,13,42,11.70
2014,12,09,13,43,10.00
2014,12,09,13,44,9.90
2014,12,09,13,45,9.10
2014,12,09,13,46,8.70
2014,12,09,13,47,10.20
2014,12,09,13,48,7.80
2014,12,09,13,49,9.90
2014,12,09,13,50,4.70
2014,12,09,13,51,8.50
2014,12,09,13,52,8.90
2014,12,09,13,53,6.90
2014,12,09,13,54,9.20
2014,12,09,13,55,13.60
2014,12,09,13,56,11.40
2014,12,09,13,57,10.10
2014,12,09,13,58,10.70
2014,12,09,13,59,9.90
2014,12,09,14,00,9.10
2014,12,09,14,01,11.40
2014,12,09,14,02,10.40
2014,12,09,14,03,10.00
2014,12,09,14,04,11.30
2014,12,09,14,05,10.00
2014,12,09,14,06,16.80
2014,12,09,14,07,12.70
2014,12,09,14,08,14.60
2014,12,09,14,09,13.80
2014,12,09,14,10,7.50
2014,12,09,14,11,6.30
2014,12,09,14,12,11.90
2014,12,09,14,13,9.00
2014,12,09,14,14,7.70
2014,12,09,14,15,11.70
2014,12,09,14,16,10.90
2014,12,09,14,17,13.70
2014,12,09,14,18,12.00
2014,12,09,14,19,10.70
2014,12,09,14,20,17.10
2014,12,09,14,21,9.40
2014,12,09,14,22,9.80
2014,12,09,14,23,17.50
2014,12,09,14,24,12.00
2014,12,09,14,25,5.70
2014,12,09,14,26,10.50
2014,12,09,14,27,10.30
2014,12,09,14,28,12.70
2014,12,09,14,29,11.00
2014,12,09,14,30,13.30
2014,12,09,14,31,10.60
2014,12,09,14,32,6.20
2014,12,09,14,33,8.60
2014,12,09,14,34,9.50
2014,12,09,14,35,7.80
2014,12,09,14,36,5.30
2014,12,09,14,37,9.90
2014,12,09,14,38,9.80
2014,12,09,14,39,8.90
2014,12,09,14,40,7.00
2014,12,09,14,41,10.90
2014,12,09,14,42,9.90
2014,12,09,14,43,12.90
2014,12,09,14,44,10.60
2014,12,09,14,45,7.70
2014,12,09,14,46,12.20
2014,12,09,14,47,9.30
2014,12,09,14,48,8.50
2014,12,09,14,49,7.60
2014,12,09,14,50,9.40
2014,12,09,14,51,9.70
2014,12,09,14,52,12.10
2014,12,09,14,53,9.70
2014,12,09,14,54,7.10
2014,12,09,14,55,7.50
2014,12,09,14,56,8.10
2014,12,09,14,57,6.50
2014,12,09,14,58,7.50
2014,12,09,14,59,8.20
2014,12,09,15,00,7.70
2014,12,09,15,01,7.50
2014,12,09,15,02,6.10
2014,12,09,15,03,14.30
2014,12,09,15,04,9.00
2014,12,09,15,05,11.40
2014,12,09,15,06,11.80
2014,12,09,15,07,11.00
2014,12,09,15,08,7.60
2014,12,09,15,09,11.80
2014,12,09,15,10,10.30
2014,12,09,15,11,9.50
2014,12,09,15,12,6.80
2014,12,09,15,13,6.90
2014,12,09,15,14,7.30
2014,12,09,15,15,7.80
2014,12,09,15,16,10.90
2014,12,09,15,17,7.60
2014,12,09,15,18,9.70
2014,12,09,15,19,11.40
2014,12,09,15,20,9.30
2014,12,09,15,21,10.40
2014,12,09,15,22,11.30
2014,12,09,15,23,12.30
2014,12,09,15,24,7.90
2014,12,09,15,25,9.50
2014,12,09,15,26,7.80
2014,12,09,15,27,7.50
2014,12,09,15,28,9.90
2014,12,09,15,29,5.10
2014,12,09,15,30,6.10
2014,12,09,15,31,6.90
2014,12,09,15,32,9.40
2014,12,09,15,33,4.70
2014,12,09,15,34,6.80
2014,12,09,15,35,6.40
2014,12,09,15,36,7.50
2014,12,09,15,37,3.90
2014,12,09,15,38,5.80
2014,12,09,15,39,5.10
2014,12,09,15,40,6.40
2014,12,09,15,41,10.70
2014,12,09,15,42,6.60
2014,12,09,15,43,7.90
2014,12,09,15,44,6.10
2014,12,09,15,45,6.70
2014,12,09,15,46,9.20
2014,12,09,15,47,6.60
2014,12,09,15,48,5.90
2014,12,09,15,49,10.00
2014,12,09,15,50,9.40
2014,12,09,15,51,8.20
2014,12,09,15,52,7.30
2014,12,09,15,53,12.40
2014,12,09,15,54,10.50
2014,12,09,15,55,11.00
2014,12,09,15,56,6.70
2014,12,09,15,57,10.60
2014,12,09,15,58,5.90
2014,12,09,15,59,10.90
2014,12,09,16,00,12.50
2014,12,09,16,01,7.20
2014,12,09,16,02,12.40
2014,12,09,16,03,8.30
2014,12,09,16,04,10.50
2014,12,09,16,05,6.10
2014,12,09,16,06,6.70
2014,12,09,16,07,9.00
2014,12,09,16,08,10.10
2014,12,09,16,09,9.50
2014,12,09,16,10,11.30
2014,12,09,16,11,10.80
2014,12,09,16,12,9.60
2014,12,09,16,13,6.60
2014,12,09,16,14,4.50
2014,12,09,16,15,9.40
2014,12,09,16,16,13.10
2014,12,09,16,17,13.40
2014,12,09,16,18,12.30
2014,12,09,16,19,12.40
2014,12,09,16,20,14.30
2014,12,09,16,21,9.70
2014,12,09,16,22,9.90
2014,12,09,16,23,12.10
2014,12,09,16,24,11.30
2014,12,09,16,25,13.40
2014,12,09,16,26,9.10
2014,12,09,16,27,13.90
2014,12,09,16,28,7.90
2014,12,09,16,29,10.90
2014,12,09,16,30,6.90
2014,12,09,16,31,10.00
2014,12,09,16,32,13.70
2014,12,09,16,33,16.30
2014,12,09,16,34,13.90
2014,12,09,16,35,8.90
2014,12,09,16,36,18.00
2014,12,09,16,37,16.40
2014,12,09,16,38,19.00
2014,12,09,16,39,12.40
2014,12,09,16,40,16.80
2014,12,09,16,41,18.60
2014,12,09,16,42,15.30
2014,12,09,16,43,8.70
2014,12,09,16,44,9.10
2014,12,09,16,45,20.20
2014,12,09,16,46,13.20
2014,12,09,16,47,16.50
2014,12,09,16,48,11.80
2014,12,09,16,49,13.80
2014,12,09,16,50,12.50
2014,12,09,16,51,14.00
2014,12,09,16,52,13.00
2014,12,09,16,53,10.30
2014,12,09,16,54,10.80
2014,12,09,16,55,12.40
2014,12,09,16,56,6.80
2014,12,09,16,57,5.30
2014,12,09,16,58,6.70
2014,12,09,16,59,7.60
2014,12,09,17,00,7.50
2014,12,09,17,01,8.90
2014,12,09,17,02,13.60
2014,12,09,17,03,8.90
2014,12,09,17,04,11.20
2014,12,09,17,05,13.00
2014,12,09,17,06,12.00
2014,12,09,17,07,8.70
2014,12,09,17,08,6.60
2014,12,09,17,09,9.60
2014,12,09,17,10,10.60
2014,12,09,17,11,9.20
2014,12,09,17,12,8.00
2014,12,09,17,13,10.50
2014,12,09,17,14,7.50
2014,12,09,17,15,8.00
2014,12,09,17,16,7.20
2014,12,09,17,17,9.10
2014,12,09,17,18,10.50
2014,12,09,17,19,6.60
2014,12,09,17,20,8.60
2014,12,09,17,21,9.60
2014,12,09,17,22,11.80
2014,12,09,17,23,13.20
2014,12,09,17,24,13.30
2014,12,09,17,25,9.50
2014,12,09,17,26,6.00
2014,12,09,17,27,4.60
2014,12,09,17,28,5.30
2014,12,09,17,29,4.30
2014,12,09,17,30,5.20
2014,12,09,17,31,9.20
2014,12,09,17,32,6.10
2014,12,09,17,33,8.10
2014,12,09,17,34,11.30
2014,12,09,17,35,8.00
2014,12,09,17,36,5.50
2014,12,09,17,37,4.80
2014,12,09,17,38,4.10
2014,12,09,17,39,4.50
2014,12,09,17,40,4.20
2014,12,09,17,41,6.60
2014,12,09,17,42,12.20
2014,12,09,17,43,10.20
2014,12,09,17,44,9.80
2014,12,09,17,45,9.20
2014,12,09,17,46,7.10
2014,12,09,17,47,6.30
2014,12,09,17,48,12.80
2014,12,09,17,49,11.00
2014,12,09,17,50,9.30
2014,12,09,17,51,5.40
2014,12,09,17,52,12.80
2014,12,09,17,53,14.90
2014,12,09,17,54,9.00
2014,12,09,17,55,9.30
2014,12,09,17,56,8.50
2014,12,09,17,57,5.30
2014,12,09,17,58,13.90
2014,12,09,17,59,12.80
2014,12,09,18,00,7.40
2014,12,09,18,01,7.80
2014,12,09,18,02,9.30
2014,12,09,18,03,9.80
2014,12,09,18,04,6.20
2014,12,09,18,05,6.60
2014,12,09,18,06,4.80
2014,12,09,18,07,10.20
2014,12,09,18,08,2.70
2014,12,09,18,09,4.70
2014,12,09,18,10,3.60
2014,12,09,18,11,3.30
2014,12,09,18,12,4.60
2014,12,09,18,13,3.10
2014,12,09,18,14,3.00
2014,12,09,18,15,8.60
2014,12,09,18,16,6.00
2014,12,09,18,17,4.20
2014,12,09,18,18,4.90
2014,12,09,18,19,3.30
2014,12,09,18,20,5.20
2014,12,09,18,21,5.10
2014,12,09,18,22,3.60
2014,12,09,18,23,4.60
2014,12,09,18,24,7.00
2014,12,09,18,25,4.80
2014,12,09,18,26,2.90
2014,12,09,18,27,3.90
2014,12,09,18,28,4.80
2014,12,09,18,29,3.30
2014,12,09,18,30,2.70
2014,12,09,18,31,4.40
2014,12,09,18,32,4.60
2014,12,09,18,33,3.60
2014,12,09,18,34,5.50
2014,12,09,18,35,6.00
2014,12,09,18,36,5.70
2014,12,09,18,37,4.40
2014,12,09,18,38,3.00
2014,12,09,18,39,2.50
2014,12,09,18,40,3.70
2014,12,09,18,41,8.00
2014,12,09,18,42,5.10
2014,12,09,18,43,7.70
2014,12,09,18,44,7.30
2014,12,09,18,45,3.40
2014,12,09,18,46,3.30
2014,12,09,18,47,5.80
2014,12,09,18,48,5.70
2014,12,09,18,49,3.20
2014,12,09,18,50,6.30
2014,12,09,18,51,5.90
2014,12,09,18,52,2.90
2014,12,09,18,53,4.10
2014,12,09,18,54,3.10
2014,12,09,18,55,2.30
2014,12,09,18,56,4.00
2014,12,09,18,57,6.60
2014,12,09,18,58,6.30
2014,12,09,18,59,5.00
2014,12,09,19,00,4.10
2014,12,09,19,01,3.00